Dewpoint
55 55 55 55 55 55 55 55 55 55 56 56 56 56 56 56 56 56 56 55 55 56 56 56 56 56 56 56 56 56 57 52 46 41 41 34 45 67 62 61 61 64 69 59 54 48 44 47 55 58 58 56 56 57 58 59 61 61 60 57 55 57 57 60 58 60 61 61 62 65 64 63 62 64 64 64 62 62 62 61 60 58 57 56 59 61 62 64
55 55 55 55 55 54 55 55 55 55 56 56 56 56 56 56 56 56 55 55 55 55 55 56 55 56 56 56 56 56 55 51 43 40 35 43 58 65 65 65 64 64 68 54 50 43 42 45 53 56 56 56 56 56 58 58 60 60 58 57 54 58 61 64 63 63 61 61 64 65 64 63 63 63 63 61 61 60 59 60 59 60 61 61 61 62 63 64
54 55 55 54 54 55 56 56 55 55 55 55 56 56 55 56 55 55 55 55 55 55 55 55 55 56 56 56 57 57 54 46 44 41 37 63 61 63 65 68 64 66 58 51 47 42 41 47 53 54 54 54 56 56 59 62 63 62 59 59 58 61 61 64 65 65 64 63 64 64 63 63 63 63 62 61 59 60 59 58 58 58 59 60 60 61 63 63
54 55 54 55 55 55 55 55 55 56 56 55 55 55 55 56 55 55 55 55 55 55 55 55 55 56 56 56 57 55 51 46 27 36 56 65 64 65 64 67 65 66 53 46 44 41 41 50 54 54 54 54 55 57 58 62 61 62 60 59 59 62 60 62 65 65 64 65 63 64 63 63 64 63 62 61 59 60 60 58 57 57 59 59 60 61 61 62
54 54 55 55 55 55 55 55 55 55 56 56 55 55 55 55 55 55 55 55 55 55 54 55 55 56 56 57 57 54 50 16 22 38 60 69 62 66 67 67 67 58 48 43 43 39 39 49 54 54 56 56 56 57 58 61 60 59 61 59 62 63 61 64 66 66 64 65 64 64 62 63 65 64 63 61 57 57 59 56 57 58 58 59 59 59 61 60
54 55 55 55 55 55 55 55 55 55 55 55 55 55 55 55 55 55 55 55 55 55 54 55 55 56 56 58 54 52 41 -17 30 36 71 70 65 66 66 68 68 54 46 44 41 36 37 46 53 54 57 56 55 56 58 58 60 56 59 58 60 62 63 67 66 66 64 65 64 63 64 65 64 64 63 63 62 61 61 57 57 58 58 59 59 60 60 59
55 55 55 55 55 55 55 55 55 55 55 55 55 55 55 55 55 55 55 54 54 54 55 55 56 57 56 57 52 45 33 11 19 57 69 71 66 64 67 66 68 51 43 35 35 32 36 45 52 55 55 55 54 54 58 60 58 58 56 58 61 65 65 67 65 66 65 65 64 65 65 65 63 61 64 64 64 63 63 59 59 58 59 59 59 60 59 59
55 54 55 54 55 55 55 55 55 55 55 55 55 55 55 55 55 55 54 54 54 55 55 55 56 56 57 51 48 37 8 -3 44 61 68 69 60 60 64 54 54 45 37 35 34 30 38 46 52 56 55 52 53 51 50 55 56 58 58 60 61 64 65 68 67 65 66 66 66 66 65 64 64 62 63 64 64 62 60 60 59 59 59 60 60 59 60 60
54 54 55 55 55 55 55 55 55 55 55 55 55 55 55 54 54 54 54 54 54 55 55 55 56 56 56 52 41 14 -5 45 57 62 62 59 46 54 45 46 48 43 38 37 34 30 40 49 54 56 55 49 46 40 48 53 56 59 61 61 62 62 66 66 65 66 66 67 67 65 64 65 65 64 64 64 63 62 61 61 59 59 59 59 59 60 61 61
54 54 55 55 55 55 55 55 55 55 55 55 55 55 54 54 54 54 54 54 55 55 55 55 56 56 55 50 36 4 39 50 55 59 55 50 44 45 44 41 43 43 36 36 33 33 41 51 55 56 53 48 42 36 44 51 51 56 59 62 62 64 66 66 65 66 66 66 66 64 65 65 65 64 61 65 63 61 59 60 59 59 59 59 59 60 61 60
55 55 54 55 54 55 54 55 55 55 55 55 55 54 54 54 54 54 54 54 54 54 54 55 56 56 50 42 28 1 44 50 50 55 56 50 43 40 41 39 40 40 37 38 36 35 44 53 55 55 49 44 42 36 49 53 54 57 61 61 64 65 66 66 66 66 66 65 67 64 64 65 65 65 61 64 63 61 61 59 59 58 58 59 60 60 61 60
55 55 54 54 54 54 54 55 55 55 55 55 54 54 54 54 53 53 53 54 54 55 55 56 56 54 51 43 21 14 43 33 49 52 49 37 27 27 37 41 37 37 37 34 35 43 48 53 53 54 46 42 35 38 51 56 56 57 59 57 62 64 64 65 64 66 65 65 67 65 64 63 63 61 63 63 64 63 62 61 58 57 58 59 59 59 61 61
55 55 55 55 54 54 55 55 55 55 55 54 54 54 54 54 53 53 53 53 54 56 56 55 56 53 50 38 19 27 25 26 48 46 39 37 38 35 36 41 38 34 32 32 37 43 44 49 52 53 44 39 34 33 41 48 55 58 58 56 58 60 60 65 66 66 64 65 67 65 54 59 60 64 64 66 64 63 63 61 59 58 57 58 59 60 60 61
55 55 55 55 54 55 55 55 55 55 54 54 54 53 53 53 53 53 53 54 55 56 57 57 55 51 50 28 20 32 35 41 47 37 35 35 34 34 33 34 34 34 32 27 30 37 41 42 48 46 46 43 34 36 37 41 55 56 55 55 52 54 56 64 65 65 63 66 65 64 58 56 62 64 65 66 65 63 60 60 58 57 56 57 58 58 59 61
56 55 54 54 55 55 55 55 55 54 54 54 53 53 53 52 52 53 54 54 55 57 57 58 54 52 46 25 28 47 52 47 45 34 33 33 34 33 30 29 31 33 33 31 26 32 36 40 43 46 47 43 37 34 41 43 53 55 53 52 51 52 55 63 65 63 62 64 66 63 59 61 60 63 65 66 66 63 60 59 59 57 55 57 57 57 58 60
56 56 56 55 55 55 55 55 55 54 54 53 53 52 53 53 53 54 56 56 57 58 57 54 52 45 33 17 39 54 48 43 41 39 32 30 31 34 31 26 25 25 27 28 28 26 33 37 44 47 44 40 34 35 45 48 50 54 56 52 49 54 54 60 64 63 64 63 65 62 58 61 62 63 65 66 66 64 62 59 59 58 56 56 57 57 58 59
56 56 56 56 55 55 55 55 55 54 54 53 52 53 53 54 55 56 57 58 58 57 53 49 46 45 31 27 29 31 35 39 44 43 37 35 32 34 30 27 23 23 24 24 24 23 26 34 39 43 43 37 31 33 44 45 48 50 53 50 49 49 51 53 62 62 63 62 61 64 61 61 64 63 65 66 66 65 62 61 60 59 57 57 58 59 59 61
55 55 56 56 55 55 55 54 55 54 53 53 53 53 53 56 57 58 58 57 55 54 53 51 47 39 18 24 26 29 31 36 43 43 39 35 33 31 30 26 23 20 23 23 23 19 24 30 38 44 44 36 30 33 44 44 44 47 48 48 49 51 49 51 54 59 61 62 60 61 61 61 63 64 65 65 66 64 62 61 59 58 57 57 57 59 60 60
55 55 55 55 55 55 55 55 54 54 53 53 55 54 55 57 57 55 47 49 48 50 46 41 41 27 11 19 29 31 32 35 41 40 36 34 31 29 29 29 22 17 19 19 20 25 25 32 41 44 39 35 30 30 42 29 39 44 49 46 47 48 49 50 54 59 59 59 59 61 59 61 62 64 64 64 65 64 62 62 61 60 59 59 58 58 59 60
55 56 55 55 55 55 54 55 54 53 52 53 54 54 53 52 49 46 48 45 38 27 27 27 29 28 26 27 29 32 34 36 38 38 33 29 26 25 27 28 21 12 15 14 21 25 28 34 42 41 39 35 31 27 27 30 31 42 48 48 46 45 48 52 57 58 58 57 58 61 59 61 62 63 64 63 64 64 62 62 62 61 61 59 58 58 60 61
56 55 55 55 55 55 54 54 54 53 52 51 52 50 28 26 26 23 28 29 27 32 32 31 30 31 29 30 30 32 33 33 35 35 28 28 23 24 25 26 20 12 13 14 18 32 35 37 42 43 42 34 27 26 31 37 38 43 43 46 45 46 47 52 54 58 57 56 56 60 59 59 61 64 64 63 63 62 62 62 61 60 61 60 59 59 61 61
55 55 55 54 54 54 54 54 53 52 51 53 51 41 33 34 36 35 35 27 30 32 33 31 36 31 31 31 32 33 34 33 35 31 26 26 19 16 21 21 15 8 12 15 25 33 39 39 40 43 32 27 26 25 25 26 37 40 41 45 39 44 54 51 55 57 57 57 58 59 58 58 60 63 65 63 62 62 62 62 62 62 61 61 60 60 61 60
55 55 55 55 54 53 53 53 52 51 52 49 46 38 35 38 40 40 36 32 29 30 29 29 29 28 28 31 33 33 32 31 33 31 26 28 18 22 17 17 11 10 18 19 18 31 38 38 40 36 32 29 25 25 25 25 28 30 40 43 39 45 50 47 54 56 57 56 58 58 57 61 62 63 64 66 63 63 64 65 65 64 61 61 60 60 59 60
55 55 55 54 54 53 53 51 51 51 51 46 41 37 38 40 40 38 34 28 23 23 25 27 27 26 27 30 34 32 31 31 32 31 28 26 20 22 17 17 11 16 13 18 14 24 32 33 36 35 33 29 27 25 24 24 27 25 33 38 37 34 40 43 53 55 56 55 58 56 56 56 59 60 62 65 66 64 63 62 63 64 64 62 62 62 61 59
55 55 55 54 53 53 51 50 49 46 44 45 40 40 41 43 46 39 34 30 28 22 22 27 28 27 30 31 34 32 30 31 30 32 31 26 25 22 21 18 20 13 12 16 16 18 24 29 34 33 34 29 26 25 24 25 25 24 26 36 30 27 34 38 50 54 52 53 53 54 51 52 55 58 59 62 64 64 62 61 63 62 63 63 61 61 61 61
55 55 54 54 53 52 50 48 44 41 40 36 37 40 41 41 41 43 35 27 16 18 20 21 22 21 22 30 34 33 29 29 31 31 31 27 30 27 27 20 18 12 16 17 20 24 26 30 32 33 32 30 27 26 26 24 23 25 25 26 32 27 33 40 44 50 47 45 53 54 51 49 55 56 58 61 62 62 63 62 61 62 63 64 63 62 60 59
55 54 54 53 53 51 50 32 42 41 38 37 39 39 39 41 51 39 34 17 14 15 17 18 18 20 19 29 32 31 23 27 32 34 31 31 28 31 21 21 26 28 27 23 27 26 31 30 28 31 33 32 29 27 23 24 23 24 21 26 30 26 29 37 37 38 41 49 56 53 51 49 50 53 57 60 60 60 60 61 61 61 63 62 63 61 61 59
54 54 53 52 52 51 50 47 41 36 33 37 39 39 42 48 48 41 34 15 14 16 15 15 15 22 19 27 28 27 27 30 29 31 32 32 34 28 28 23 19 25 26 27 21 28 31 29 27 27 29 31 31 31 27 25 23 19 20 20 21 22 25 35 37 38 40 45 49 50 52 50 48 56 56 59 58 59 59 60 60 61 61 63 63 61 60 60
54 53 53 53 52 50 52 49 46 34 37 40 40 40 41 49 40 36 27 14 17 14 17 16 18 15 19 22 22 25 27 27 24 30 32 33 33 29 23 24 21 25 26 25 15 27 28 30 28 25 24 25 30 30 24 25 24 23 27 24 24 22 29 34 37 39 45 44 46 49 49 49 50 55 57 58 57 58 57 60 61 60 62 62 62 62 61 61
54 53 53 52 51 51 52 51 44 39 42 42 41 46 42 40 37 32 15 14 17 13 16 15 15 19 21 19 22 25 23 24 30 31 32 31 30 30 29 28 25 27 25 25 24 25 26 32 32 28 24 21 23 24 24 24 25 20 25 34 32 32 34 39 41 43 44 45 45 47 49 45 44 52 54 56 55 55 57 61 64 61 61 62 62 62 61 61
52 52 52 52 48 46 44 43 38 42 45 46 45 43 41 39 29 12 13 13 16 12 13 14 17 17 21 20 20 20 22 25 28 29 29 30 28 28 28 25 27 23 23 23 20 26 25 25 24 24 26 24 22 21 22 22 23 22 22 30 36 41 43 42 40 42 39 37 46 48 47 47 42 52 54 57 55 55 53 57 62 65 61 61 62 61 61 60
51 51 51 52 51 51 40 32 42 43 47 44 44 42 35 21 17 17 15 16 14 12 11 15 18 12 19 21 18 20 16 23 28 27 26 26 26 24 23 24 22 21 19 19 16 21 22 23 22 23 28 23 22 18 19 19 20 23 26 32 36 40 42 43 44 39 36 36 44 44 46 46 45 47 49 52 53 54 56 58 61 64 62 60 60 61 62 61
51 50 50 51 52 49 45 48 49 51 47 44 43 37 33 16 19 18 13 15 11 15 14 15 11 10 13 19 16 17 16 16 23 24 25 25 25 24 26 24 23 23 19 17 16 18 15 20 21 22 23 25 21 14 16 16 17 20 23 31 34 35 39 35 39 38 33 34 43 43 47 44 47 48 52 50 52 53 55 53 60 61 60 60 61 61 61 61
50 50 53 53 51 49 48 56 51 49 44 44 42 27 21 17 17 25 15 12 12 15 13 11 9 9 9 6 13 14 15 15 18 21 23 25 25 23 24 25 24 23 24 20 16 16 12 14 18 20 18 22 21 17 14 14 16 18 19 26 33 38 34 35 33 36 33 35 36 46 41 41 40 48 51 54 54 55 54 55 56 60 60 60 60 61 61 62
48 51 55 54 52 51 49 50 52 51 45 39 32 19 18 19 18 16 14 15 14 15 10 10 10 8 8 9 12 13 12 16 20 20 21 23 22 21 20 21 25 24 22 20 18 20 13 16 17 19 17 20 18 19 18 16 15 16 17 20 25 29 33 33 34 37 32 36 40 45 40 45 45 56 56 55 54 54 54 54 56 58 60 61 60 61 61 61
49 54 52 52 46 48 49 50 51 48 44 33 19 19 15 20 15 16 17 20 16 16 11 10 9 7 7 10 12 11 16 18 18 20 19 16 20 19 21 21 20 23 22 17 22 15 18 15 17 16 22 20 17 17 17 18 15 15 15 17 22 27 27 35 35 34 37 37 36 38 38 38 51 50 52 59 56 54 54 54 54 57 59 62 61 60 60 61
47 48 44 42 42 44 50 49 47 46 41 29 19 20 21 17 18 18 22 18 17 18 13 11 10 13 8 9 10 11 15 18 18 17 19 19 19 18 19 18 18 20 21 21 21 21 19 13 17 18 16 19 18 16 16 17 15 18 15 16 20 27 31 35 32 36 32 32 31 32 34 33 41 38 54 55 57 54 54 53 53 58 59 61 60 61 61 62
44 39 43 37 42 48 50 50 46 44 35 20 23 28 22 17 20 20 20 19 19 18 14 11 13 17 10 9 9 11 16 15 18 16 18 18 15 17 16 17 17 18 20 21 21 21 20 17 17 16 15 18 23 22 18 18 16 18 15 14 16 22 26 31 32 34 29 28 28 33 33 32 34 46 48 53 54 55 56 57 57 57 59 61 61 61 62 62
46 37 30 37 44 44 49 51 46 42 24 21 23 24 18 18 19 19 22 22 21 20 14 14 15 15 15 8 11 14 16 12 17 14 19 18 16 16 15 16 17 20 22 21 21 21 19 17 14 18 17 19 20 20 18 16 20 20 23 17 16 19 22 27 29 32 32 33 26 29 32 30 34 37 49 56 57 58 57 58 57 57 58 60 61 61 63 66
31 30 26 37 39 45 53 48 38 23 21 19 19 18 23 18 17 19 21 23 19 21 19 20 17 13 16 14 12 13 15 15 17 19 18 18 15 16 15 18 17 20 21 21 21 22 21 26 20 17 19 18 16 18 13 16 16 16 17 17 16 16 18 20 22 26 26 28 28 27 30 31 50 59 58 58 59 60 59 59 60 58 59 59 60 62 63 64
33 29 30 38 38 43 43 39 23 21 20 19 21 19 20 21 19 17 20 22 22 23 21 22 20 18 19 14 13 16 16 16 18 18 15 18 15 17 18 22 22 19 21 21 23 21 24 23 20 16 17 15 14 17 13 17 17 15 14 14 14 15 16 21 23 22 22 26 27 27 28 35 55 60 60 59 59 60 62 60 58 59 59 61 61 61 63 62
31 25 28 37 38 38 37 21 20 24 18 18 16 21 21 32 18 17 18 20 20 21 23 23 23 22 21 20 18 18 15 15 16 15 16 15 16 18 21 25 25 21 19 21 23 26 32 28 22 19 17 11 21 22 25 23 23 19 14 12 14 15 16 18 20 24 25 25 25 29 29 45 55 56 58 58 60 61 62 60 60 60 59 60 61 61 63 64
28 27 33 36 37 34 30 21 27 24 20 18 24 21 21 19 18 17 19 20 20 21 21 21 24 25 22 25 20 17 20 18 17 16 15 17 18 20 22 25 26 22 19 22 23 31 42 29 24 21 23 20 20 20 23 22 22 20 19 17 14 14 14 15 17 22 23 23 25 30 32 36 52 59 59 60 61 62 64 62 61 61 61 61 61 61 64 65
31 28 28 34 41 34 27 21 20 18 17 20 20 19 21 21 21 19 20 22 23 22 22 22 24 27 26 24 21 21 23 20 18 17 18 21 19 22 23 24 27 23 26 25 28 30 26 36 29 24 23 22 19 21 19 21 21 18 17 19 22 21 21 17 22 30 25 23 25 28 25 41 57 56 59 61 59 60 63 64 64 63 63 63 65 66 66 66
30 27 29 25 30 25 19 18 19 18 19 20 19 18 18 19 23 24 24 23 25 24 23 23 25 25 24 24 22 20 19 16 19 20 19 19 19 22 22 23 24 25 33 37 48 37 29 28 33 24 20 19 20 19 18 21 20 20 22 24 26 22 23 24 22 27 24 31 30 27 26 51 54 57 57 58 58 60 62 62 63 64 64 64 65 66 66 66
25 29 22 22 24 23 27 27 21 17 20 23 22 19 18 18 20 23 24 23 25 25 23 24 23 23 21 21 21 19 18 19 17 22 23 20 20 20 22 23 22 23 41 45 42 37 29 33 36 33 28 25 29 32 24 26 23 20 25 27 29 25 27 29 27 23 21 30 35 34 31 50 53 53 56 57 58 59 61 61 62 63 65 65 66 66 65 66
28 26 24 27 21 20 22 23 20 18 20 21 26 21 20 17 16 20 24 22 23 23 25 23 23 23 23 22 22 21 19 18 22 24 24 20 21 20 21 21 20 32 45 42 32 31 34 27 29 32 28 25 21 23 22 26 27 28 28 29 30 30 31 29 25 24 36 28 23 38 44 38 48 52 55 57 57 60 61 60 61 62 64 64 65 66 66 66
30 38 39 39 35 21 19 20 23 18 21 21 25 26 20 20 19 22 21 22 23 21 21 23 23 23 26 27 27 25 25 25 27 24 23 24 24 19 18 18 18 37 36 23 26 32 27 23 27 24 23 21 19 20 23 25 27 31 32 32 34 35 33 29 29 38 42 31 23 45 45 36 42 50 54 56 57 59 58 59 62 63 64 64 65 65 65 65
42 40 40 43 35 29 34 31 30 20 22 22 26 24 21 18 20 21 22 20 19 22 22 28 22 22 24 27 29 27 35 23 26 31 32 25 23 26 22 22 19 18 19 25 29 36 36 22 33 27 24 21 21 19 20 23 26 29 31 35 35 36 39 40 41 43 42 48 42 40 49 43 50 54 55 55 57 58 58 60 62 63 63 64 64 65 64 64
42 38 35 43 39 35 35 28 24 23 22 33 29 25 22 20 20 21 22 22 24 22 22 22 22 23 24 25 31 27 30 32 33 29 30 33 23 28 25 25 23 22 20 23 25 36 32 28 31 30 28 21 19 20 21 19 21 25 28 33 34 36 40 41 42 44 43 43 44 43 50 52 55 57 56 57 59 59 58 60 60 63 62 61 62 62 62 64
51 53 56 42 31 37 35 26 25 26 25 26 25 25 23 21 23 23 26 24 26 29 24 23 23 25 25 26 27 26 24 30 31 27 26 27 25 25 30 27 24 25 23 24 25 31 27 28 28 30 28 24 25 22 20 20 19 22 29 32 37 36 38 41 46 47 46 47 49 48 49 50 55 57 57 58 59 59 57 59 60 61 61 62 61 61 62 64
55 54 57 53 36 43 31 25 27 25 23 26 28 27 25 24 23 25 27 25 25 28 28 26 26 24 27 27 27 27 25 23 23 25 26 23 24 23 23 23 22 26 26 26 30 25 30 30 27 25 29 22 24 23 23 21 21 21 28 33 38 37 42 44 45 48 49 48 45 44 49 54 56 56 56 58 58 59 57 59 59 60 62 61 62 62 63 63